Weather History for KCLS - January, 2015

Change the Weather History Date:

Monday, January 5, 2015

  Actual Average (KOLM) Record (KOLM)
Temperature  
Mean Temperature 50 °F 39 °F  
Max Temperature 53 °F 45 °F 53 °F (2010)
Min Temperature 48 °F 34 °F 4 °F (1979)
Degree Days  
Heating Degree Days 14 26  
Month to date heating degree days 130  
Since 1 July heating degree days 2400  
Cooling Degree Days 0 0  
Month to date cooling degree days 0  
Year to date cooling degree days 0  
Moisture  
Dew Point 52 °F    
Average Humidity 97    
Maximum Humidity 100    
Minimum Humidity 88    
Precipitation  
Precipitation 0.00 in 0.26 in 1.95 in (1954)
Month to date precipitation 1.27  
Year to date precipitation 1.27  
Sea Level Pressure  
Sea Level Pressure 30.24 in    
Wind  
Wind Speed 10 mph (South)    
Max Wind Speed 16 mph    
Max Gust Speed 24 mph    
Visibility 8 miles    
Events Rain    
T = Trace of Precipitation, MM = Missing Value Source: NWS Daily Summary

Daily Weather History Graph

Daily Weather History Graph

Search for Another Location

Airport or City:

Trip Planner

Search our weather history database for the weather conditions in past years. The results will help you decide how hot, cold, wet, or windy it might be!

Date:

Astronomy

Jan. 05, 2015 Rise Set
Actual Time 7:56 AM PST 4:38 PM PST
Civil Twilight 7:21 AM PST 5:13 PM PST
Nautical Twilight 6:43 AM PST 5:51 PM PST
Astronomical Twilight 6:06 AM PST 6:28 PM PST
Moon 5:44 PM PST 7:51 AM PST
Length of Visible Light 9h 52m
Length of Day
8h 42m
Full, 100% of the Moon is Illuminated
Jan 5
Full
Jan 13
Last Quarter
Jan 20
New
Jan 26
First Quarter
Feb 3
Full

Hourly Weather History & Observations

Time (PST) Temp. Dew Point Humidity Pressure Visibility Wind Dir Wind Speed Gust Speed Precip Events Conditions
12:15 AM 50.0 °F 50.0 °F 100% 30.08 in 5.0 mi South 11.5 mph 20.7 mph N/A Rain Light Rain
12:35 AM 50.0 °F 50.0 °F 100% 30.08 in 4.0 mi South 10.4 mph 18.4 mph N/A Rain Rain
12:55 AM 50.0 °F 50.0 °F 100% 30.09 in 3.0 mi South 8.1 mph - N/A Rain Rain
1:15 AM 50.0 °F 50.0 °F 100% 30.10 in 4.0 mi South 10.4 mph - N/A Rain Light Rain
1:35 AM 51.8 °F 51.8 °F 100% 30.10 in 4.0 mi SSE 10.4 mph - N/A Rain Rain
1:55 AM 51.8 °F 51.8 °F 100% 30.11 in 4.0 mi SSE 10.4 mph 18.4 mph N/A   Overcast
2:15 AM 51.8 °F 51.8 °F 100% 30.12 in 5.0 mi SSE 12.7 mph 18.4 mph N/A Rain Rain
2:35 AM 51.8 °F 51.8 °F 100% 30.12 in 5.0 mi SSE 15.0 mph - N/A Rain Rain
2:55 AM 51.8 °F 51.8 °F 100% 30.13 in 5.0 mi SSE 11.5 mph 18.4 mph N/A Rain Light Rain
3:15 AM 51.8 °F 51.8 °F 100% 30.13 in 7.0 mi SSE 16.1 mph 24.2 mph N/A Rain Light Rain
3:35 AM 51.8 °F 51.8 °F 100% 30.15 in 7.0 mi South 12.7 mph 19.6 mph N/A Rain Light Rain
3:55 AM 51.8 °F 51.8 °F 100% 30.15 in 4.0 mi SSE 11.5 mph 18.4 mph N/A Rain Light Rain
4:15 AM 51.8 °F 51.8 °F 100% 30.15 in 6.0 mi SSE 15.0 mph - N/A Rain Light Rain
4:35 AM 51.8 °F 51.8 °F 100% 30.15 in 5.0 mi SSE 11.5 mph 19.6 mph N/A Rain Rain
4:55 AM 51.8 °F 51.8 °F 100% 30.16 in 4.0 mi South 12.7 mph 18.4 mph N/A Rain Rain
5:15 AM 51.8 °F 51.8 °F 100% 30.16 in 4.0 mi SSE 15.0 mph - N/A Rain Rain
5:35 AM 51.8 °F 51.8 °F 100% 30.17 in 4.0 mi South 10.4 mph 18.4 mph N/A Rain Rain
5:55 AM 51.8 °F 51.8 °F 100% 30.17 in 7.0 mi South 11.5 mph 19.6 mph N/A Rain Light Rain
6:15 AM 53.6 °F 53.6 °F 100% 30.18 in 9.0 mi South 10.4 mph 16.1 mph N/A Rain Light Rain
6:35 AM 51.8 °F 51.8 °F 100% 30.19 in 7.0 mi South 12.7 mph - N/A Rain Light Rain
6:55 AM 53.6 °F 53.6 °F 100% 30.20 in 9.0 mi South 11.5 mph 19.6 mph N/A Rain Light Rain
7:15 AM 53.6 °F 53.6 °F 100% 30.19 in 9.0 mi South 16.1 mph - N/A Rain Light Rain
7:35 AM 53.6 °F 53.6 °F 100% 30.20 in 9.0 mi South 11.5 mph 17.3 mph N/A Rain Light Rain
7:55 AM 53.6 °F 53.6 °F 100% 30.21 in 9.0 mi South 11.5 mph - N/A Rain Light Rain
8:15 AM 53.6 °F 53.6 °F 100% 30.21 in 10.0 mi South 10.4 mph - N/A Rain Light Rain
8:35 AM 53.6 °F 53.6 °F 100% 30.22 in 10.0 mi South 10.4 mph - N/A Rain Light Rain
8:55 AM 53.6 °F 53.6 °F 100% 30.23 in 10.0 mi South 10.4 mph 16.1 mph N/A   Overcast
9:15 AM 53.6 °F 53.6 °F 100% 30.24 in 10.0 mi South 10.4 mph - N/A   Overcast
9:35 AM 53.6 °F 51.8 °F 94% 30.24 in 10.0 mi South 11.5 mph - N/A   Overcast
9:55 AM 53.6 °F 51.8 °F 94% 30.26 in 10.0 mi South 8.1 mph 15.0 mph N/A   Overcast
10:15 AM 53.6 °F 51.8 °F 94% 30.27 in 10.0 mi South 8.1 mph - N/A   Overcast
10:35 AM 53.6 °F 51.8 °F 94% 30.29 in 10.0 mi Variable 6.9 mph 15.0 mph N/A   Overcast
10:55 AM 53.6 °F 51.8 °F 94% 30.29 in 10.0 mi South 9.2 mph - N/A   Overcast
11:15 AM 53.6 °F 53.6 °F 100% 30.28 in 6.0 mi SSE 10.4 mph 16.1 mph N/A   Mostly Cloudy
11:35 AM 53.6 °F 53.6 °F 100% 30.29 in 8.0 mi South 9.2 mph - N/A   Overcast
11:55 AM 53.6 °F 53.6 °F 100% 30.30 in 2.5 mi South 12.7 mph - N/A   Light Drizzle
12:15 PM 53.6 °F 53.6 °F 100% 30.29 in 10.0 mi South 10.4 mph 17.3 mph N/A   Mostly Cloudy
12:35 PM 53.6 °F 53.6 °F 100% 30.29 in 10.0 mi South 11.5 mph 17.3 mph N/A   Mostly Cloudy
12:55 PM 53.6 °F 51.8 °F 94% 30.30 in 10.0 mi South 10.4 mph - N/A   Overcast
1:15 PM 53.6 °F 51.8 °F 94% 30.30 in 10.0 mi South 10.4 mph - N/A   Overcast
1:35 PM 53.6 °F 51.8 °F 94% 30.31 in 10.0 mi South 11.5 mph - N/A   Overcast
1:55 PM 53.6 °F 51.8 °F 94% 30.31 in 10.0 mi South 10.4 mph 17.3 mph N/A   Overcast
2:15 PM 53.6 °F 51.8 °F 94% 30.30 in 10.0 mi South 11.5 mph 18.4 mph N/A   Mostly Cloudy
2:35 PM 53.6 °F 51.8 °F 94% 30.29 in 10.0 mi South 12.7 mph - N/A   Mostly Cloudy
2:55 PM 53.6 °F 51.8 °F 94% 30.30 in 10.0 mi South 10.4 mph - N/A   Mostly Cloudy
3:15 PM 53.6 °F 51.8 °F 94% 30.30 in 10.0 mi SSW 10.4 mph - N/A   Overcast
3:35 PM 53.6 °F 51.8 °F 94% 30.29 in 10.0 mi South 11.5 mph - N/A   Overcast
3:55 PM 53.6 °F 51.8 °F 94% 30.29 in 10.0 mi SSW 9.2 mph - N/A   Overcast
4:15 PM 53.6 °F 51.8 °F 94% 30.30 in 10.0 mi South 11.5 mph - N/A   Overcast
4:35 PM 53.6 °F 51.8 °F 94% 30.30 in 10.0 mi South 8.1 mph - N/A   Overcast
4:55 PM 53.6 °F 51.8 °F 94% 30.30 in 10.0 mi South 4.6 mph - N/A   Overcast
5:15 PM 53.6 °F 51.8 °F 94% 30.29 in 10.0 mi SSE 5.8 mph - N/A   Overcast
5:35 PM 53.6 °F 51.8 °F 94% 30.27 in 10.0 mi SSE 8.1 mph - N/A   Overcast
5:55 PM 53.6 °F 51.8 °F 94% 30.27 in 10.0 mi South 6.9 mph 16.1 mph N/A   Overcast
6:15 PM 53.6 °F 51.8 °F 94% 30.28 in 10.0 mi South 11.5 mph - N/A   Overcast
6:35 PM 53.6 °F 51.8 °F 94% 30.28 in 10.0 mi South 10.4 mph - N/A   Overcast
6:55 PM 53.6 °F 51.8 °F 94% 30.29 in 10.0 mi South 9.2 mph 15.0 mph N/A   Overcast
7:15 PM 53.6 °F 51.8 °F 94% 30.28 in 10.0 mi South 9.2 mph - N/A   Overcast
7:35 PM 53.6 °F 51.8 °F 94% 30.30 in 10.0 mi South 9.2 mph - N/A   Overcast
7:55 PM 53.6 °F 51.8 °F 94% 30.32 in 10.0 mi SSW 5.8 mph - N/A   Overcast
8:15 PM 53.6 °F 51.8 °F 94% 30.32 in 10.0 mi Variable 4.6 mph - N/A   Overcast
8:35 PM 53.6 °F 50.0 °F 88% 30.31 in 10.0 mi SE 3.5 mph - N/A   Overcast
8:55 PM 51.8 °F 50.0 °F 94% 30.31 in 10.0 mi Calm Calm - N/A   Overcast
9:15 PM 51.8 °F 50.0 °F 94% 30.31 in 10.0 mi South 4.6 mph - N/A   Scattered Clouds
9:35 PM 51.8 °F 50.0 °F 94% 30.31 in 10.0 mi Calm Calm - N/A   Partly Cloudy
9:55 PM 51.8 °F 50.0 °F 94% 30.29 in 10.0 mi South 5.8 mph - N/A   Partly Cloudy
10:15 PM 51.8 °F 50.0 °F 94% 30.28 in 10.0 mi South 5.8 mph - N/A   Clear
10:35 PM 50.0 °F 50.0 °F 100% 30.28 in 10.0 mi South 6.9 mph - N/A   Clear
10:55 PM 50.0 °F 50.0 °F 100% 30.28 in 10.0 mi SW 3.5 mph - N/A   Clear
11:15 PM 48.2 °F 48.2 °F 100% 30.30 in 10.0 mi Calm Calm - N/A   Clear
11:35 PM 48.2 °F 48.2 °F 100% 30.27 in 10.0 mi SE 3.5 mph - N/A   Clear
11:55 PM 48.2 °F 48.2 °F 100% 30.28 in 10.0 mi Calm Calm - N/A   Clear